TA2DMX-13 Weather Reports


time (UTC)temp
F
wind
direction
speed
knots
gust
knots
rain 1hr
in
rain 24hr
in
rain mn
in
humidity
%
barometer
mb
20260507033911 54 0 0.0 0.0 0.00 0.00 0.00 77 1012.0
20260507032308 54 0 0.0 0.0 0.00 0.00 0.00 79 1011.9
20260507030705 53 270 0.0 0.0 0.00 0.00 0.00 79 1011.8
20260507024216 53 315 0.0 0.0 0.00 0.00 0.00 79 1011.7
20260507022611 53 270 0.0 0.0 0.00 0.00 0.00 79 1011.6
20260507021008 53 0 0.0 0.0 0.00 0.00 0.00 78 1011.5
20260507015404 53 0 0.0 0.0 0.00 0.00 0.00 78 1011.5
20260507012408 53 0 0.0 0.0 0.00 0.00 0.00 78 1011.4
20260507010703 54 0 0.0 0.0 0.00 0.00 0.00 78 1011.4
20260507004513 54 225 0.0 0.0 0.00 0.00 0.00 77 1011.5
20260507003009 54 270 0.0 0.0 0.00 0.00 0.00 76 1011.4
20260506234507 54 270 0.0 0.0 0.00 0.00 0.00 75 1011.4
20260506233005 54 270 0.0 0.0 0.00 0.00 0.00 75 1011.5
20260506231504 54 0 0.0 0.0 0.00 0.00 0.00 75 1011.5
20260506230006 55 0 0.0 0.0 0.00 0.00 0.00 75 1011.6
20260506224309 54 0 0.0 0.0 0.00 0.00 0.00 74 1011.5
20260506222703 55 270 0.0 0.0 0.00 0.00 0.00 75 1011.4
20260506212308 55 0 0.0 0.0 0.00 0.00 0.00 71 1011.5
20260506210704 56 0 0.0 0.0 0.00 0.00 0.00 68 1011.6
20260506204219 56 270 0.0 0.0 0.00 0.00 0.00 63 1011.3
20260506202617 57 270 0.0 0.0 0.00 0.00 0.00 62 1011.3
20260506201017 57 270 0.0 0.0 0.00 0.00 0.00 64 1011.3
20260506195411 57 225 0.0 0.0 0.00 0.00 0.00 63 1011.3
20260506193308 57 270 0.0 0.0 0.00 0.00 0.00 60 1011.1
20260506191704 58 270 0.0 0.0 0.00 0.00 0.00 60 1010.9
20260506190012 58 270 0.0 0.0 0.00 0.00 0.00 60 1010.7
20260506184008 58 270 0.0 0.0 0.00 0.00 0.00 61 1010.5
20260506182403 59 270 0.0 0.0 0.00 0.00 0.00 61 1010.4
20260506180007 60 0 0.0 0.0 0.00 0.00 0.00 58 1010.2
20260506173404 62 0 0.0 0.0 0.00 0.00 0.00 53 1010.0
20260506163909 65 270 0.0 0.0 0.00 0.00 0.00 48 1009.7
20260506162307 67 315 0.0 0.0 0.00 0.00 0.00 43 1009.5
20260506152908 71 315 0.0 0.0 0.00 0.00 0.00 27 1009.5
20260506151304 71 270 0.0 0.0 0.00 0.00 0.00 28 1009.5
20260506144130 72 270 0.0 0.0 0.00 0.00 0.00 24 1009.6
20260506142527 71 225 0.0 0.0 0.00 0.00 0.00 24 1009.6
20260506135421 72 0 0.0 0.0 0.00 0.00 0.00 21 1009.8
20260506130714 72 225 0.0 0.0 0.00 0.00 0.00 21 1009.7
20260506123508 71 0 0.0 0.0 0.00 0.00 0.00 22 1009.9
20260506121904 72 270 0.0 0.0 0.00 0.00 0.00 22 1010.0
20260506114504 72 270 0.0 0.0 0.00 0.00 0.00 21 1010.3
20260506112918 73 315 0.0 0.0 0.00 0.00 0.00 22 1010.4
20260506105713 78 270 0.0 0.0 0.00 0.00 0.00 20 1010.5
20260506104010 88 0 0.0 0.0 0.00 0.00 0.00 15 1010.3
20260506102407 88 315 0.0 0.0 0.00 0.00 0.00 16 1010.3
20260506100805 92 225 0.0 0.0 0.00 0.00 0.00 13 1010.3
20260506092904 97 270 0.0 0.0 0.00 0.00 0.00 13 1010.4
20260506084514 89 270 0.0 0.0 0.00 0.00 0.00 17 1010.6
20260506081506 68 270 0.0 0.0 0.00 0.00 0.00 34 1011.1
20260506072823 82 0 0.0 0.0 0.00 0.00 0.00 22 1010.8
20260506071223 89 0 0.0 0.0 0.00 0.00 0.00 19 1010.6
20260506062411 98 0 0.0 0.0 0.00 0.00 0.00 17 1010.5
20260506060804 98 0 0.0 0.0 0.00 0.00 0.00 18 1010.5
20260506043912 80 270 0.0 0.0 0.00 0.00 0.00 34 1010.8
20260506042308 69 315 0.0 0.0 0.00 0.00 0.00 51 1011.0